• In Germany
  • List of Countries
  • For 7 days
  • Water Temperature
  • Satellite Maps
  • Weather Map
  • Weather Widgets
  • user-avatar
    Login

    Hourly Weather Balho

    Today, 22 September, Saturday

    Time Temperature Precipitation Wind Pressure Humidity
    00:00 +37°C° 0 mm 2 mps 733 mmHg 39%
    01:00 +37°C° 0 mm 2 mps 733 mmHg 41%
    02:00 +36°C° 0 mm 2 mps 733 mmHg 42%
    03:00 +35°C° 0 mm 1 mps 733 mmHg 44%
    04:00 +35°C° 0.1 mm 2 mps 733 mmHg 46%
    05:00 +35°C° 0.1 mm 2 mps 734 mmHg 49%
    06:00 +34°C° 0.1 mm 2 mps 734 mmHg 51%
    07:00 +35°C° 0 mm 2 mps 734 mmHg 48%
    08:00 +35°C° 0 mm 2 mps 735 mmHg 45%
    09:00 +35°C° 0 mm 1 mps 735 mmHg 42%
    10:00 +36°C° 0 mm 1 mps 735 mmHg 39%
    11:00 +37°C° 0 mm 1 mps 735 mmHg 35%
    12:00 +39°C° 0 mm 1 mps 735 mmHg 31%
    13:00 +40°C° 0 mm 1 mps 734 mmHg 29%
    14:00 +40°C° 0 mm 1 mps 734 mmHg 27%
    15:00 +41°C° 0 mm 1 mps 733 mmHg 25%
    16:00 +41°C° 0 mm 2 mps 733 mmHg 26%
    17:00 +41°C° 0 mm 2 mps 733 mmHg 27%
    18:00 +40°C° 0 mm 2 mps 733 mmHg 28%
    19:00 +39°C° 0 mm 3 mps 733 mmHg 33%
    20:00 +39°C° 0 mm 3 mps 733 mmHg 38%
    21:00 +38°C° 0 mm 4 mps 734 mmHg 43%
    22:00 +37°C° 0 mm 4 mps 734 mmHg 45%
    23:00 +37°C° 0 mm 4 mps 734 mmHg 47%

    Tomorrow, 23 September, Sunday

    Time Temperature Precipitation Wind Pressure Humidity
    00:00 +36°C° 0 mm 4 mps 735 mmHg 50%
    01:00 +36°C° 0 mm 3 mps 734 mmHg 51%
    02:00 +35°C° 0 mm 3 mps 734 mmHg 52%
    03:00 +35°C° 0 mm 2 mps 734 mmHg 53%
    04:00 +34°C° 0 mm 2 mps 734 mmHg 54%
    05:00 +34°C° 0 mm 2 mps 734 mmHg 55%
    06:00 +34°C° 0 mm 2 mps 735 mmHg 56%
    07:00 +35°C° 0 mm 2 mps 735 mmHg 51%
    08:00 +35°C° 0 mm 1 mps 736 mmHg 47%
    09:00 +35°C° 0 mm 1 mps 737 mmHg 42%
    10:00 +37°C° 0 mm 1 mps 736 mmHg 37%
    11:00 +39°C° 0 mm 1 mps 736 mmHg 32%
    12:00 +40°C° 0 mm 1 mps 736 mmHg 27%
    13:00 +41°C° 0 mm 1 mps 735 mmHg 25%
    14:00 +41°C° 0 mm 1 mps 734 mmHg 22%
    15:00 +42°C° 0 mm 1 mps 733 mmHg 19%
    16:00 +42°C° 0 mm 2 mps 733 mmHg 19%
    17:00 +42°C° 0 mm 2 mps 733 mmHg 18%
    18:00 +43°C° 0 mm 3 mps 733 mmHg 18%
    19:00 +42°C° 0 mm 3 mps 733 mmHg 21%
    20:00 +40°C° 0 mm 3 mps 734 mmHg 25%
    21:00 +39°C° 0 mm 3 mps 734 mmHg 28%
    22:00 +38°C° 0.2 mm 3 mps 734 mmHg 31%
    23:00 +38°C° 0.2 mm 2 mps 734 mmHg 34%

    Day after tomorrow, 24 September, Monday

    Time Temperature Precipitation Wind Pressure Humidity
    00:00 +37°C° 0.2 mm 2 mps 734 mmHg 37%
    01:00 +36°C° 0.1 mm 2 mps 734 mmHg 38%
    02:00 +35°C° 0.1 mm 1 mps 734 mmHg 40%
    03:00 +35°C° 0.1 mm 1 mps 733 mmHg 41%
    04:00 +34°C° 0 mm 1 mps 733 mmHg 41%
    05:00 +34°C° 0 mm 1 mps 734 mmHg 41%
    06:00 +34°C° 0 mm 1 mps 734 mmHg 42%
    07:00 +35°C° 0 mm 1 mps 734 mmHg 38%
    08:00 +36°C° 0 mm 1 mps 735 mmHg 34%
    09:00 +37°C° 0 mm 1 mps 735 mmHg 30%
    10:00 +39°C° 0 mm 1 mps 735 mmHg 27%
    11:00 +40°C° 0 mm 1 mps 735 mmHg 24%
    12:00 +41°C° 0 mm 1 mps 735 mmHg 22%
    13:00 +41°C° 0 mm 1 mps 734 mmHg 21%
    14:00 +41°C° 0 mm 1 mps 733 mmHg 21%
    15:00 +42°C° 0 mm 1 mps 732 mmHg 20%
    16:00 +41°C° 0 mm 2 mps 732 mmHg 21%
    17:00 +41°C° 0 mm 2 mps 732 mmHg 22%
    18:00 +41°C° 0 mm 2 mps 732 mmHg 23%
    19:00 +40°C° 0.1 mm 2 mps 733 mmHg 25%
    20:00 +40°C° 0.1 mm 3 mps 733 mmHg 26%
    21:00 +39°C° 0.1 mm 3 mps 734 mmHg 28%
    22:00 +38°C° 0.2 mm 2 mps 733 mmHg 29%
    23:00 +38°C° 0.2 mm 2 mps 733 mmHg 30%

    25 September, Tuesday

    Time Temperature Precipitation Wind Pressure Humidity
    00:00 +37°C° 0.2 mm 2 mps 733 mmHg 31%
    01:00 +37°C° 0.3 mm 2 mps 733 mmHg 32%
    02:00 +37°C° 0.3 mm 2 mps 733 mmHg 33%
    03:00 +36°C° 0.3 mm 2 mps 732 mmHg 34%
    04:00 +36°C° 0 mm 2 mps 733 mmHg 35%
    05:00 +35°C° 0 mm 2 mps 733 mmHg 36%
    06:00 +35°C° 0 mm 2 mps 733 mmHg 38%
    07:00 +35°C° 0 mm 3 mps 734 mmHg 36%
    08:00 +36°C° 0 mm 3 mps 735 mmHg 34%
    09:00 +37°C° 0 mm 3 mps 735 mmHg 33%
    10:00 +38°C° 0 mm 3 mps 735 mmHg 31%
    11:00 +39°C° 0 mm 2 mps 734 mmHg 28%
    12:00 +40°C° 0 mm 2 mps 734 mmHg 26%
    13:00 +40°C° 0 mm 2 mps 733 mmHg 25%
    14:00 +41°C° 0 mm 2 mps 732 mmHg 24%
    15:00 +41°C° 0 mm 2 mps 732 mmHg 24%
    16:00 +41°C° 0 mm 2 mps 732 mmHg 24%
    17:00 +41°C° 0 mm 2 mps 732 mmHg 24%
    18:00 +41°C° 0 mm 2 mps 732 mmHg 24%
    19:00 +40°C° 0 mm 3 mps 732 mmHg 27%
    20:00 +40°C° 0 mm 3 mps 733 mmHg 30%
    21:00 +39°C° 0 mm 3 mps 733 mmHg 32%
    22:00 +38°C° 0 mm 3 mps 733 mmHg 36%
    23:00 +37°C° 0 mm 3 mps 733 mmHg 39%

    26 September, Wednesday

    Time Temperature Precipitation Wind Pressure Humidity
    00:00 +37°C° 0 mm 3 mps 733 mmHg 42%
    01:00 +36°C° 0 mm 3 mps 733 mmHg 44%
    02:00 +36°C° 0 mm 3 mps 732 mmHg 47%
    03:00 +35°C° 0 mm 3 mps 732 mmHg 49%
    04:00 +35°C° 0 mm 3 mps 733 mmHg 50%
    05:00 +34°C° 0 mm 3 mps 733 mmHg 52%
    06:00 +34°C° 0 mm 3 mps 733 mmHg 53%
    07:00 +35°C° 0 mm 3 mps 734 mmHg 51%
    08:00 +35°C° 0 mm 3 mps 735 mmHg 49%
    09:00 +36°C° 0 mm 3 mps 735 mmHg 46%
    10:00 +37°C° 0.1 mm 3 mps 735 mmHg 42%
    11:00 +38°C° 0.1 mm 3 mps 734 mmHg 37%
    12:00 +39°C° 0.1 mm 2 mps 734 mmHg 32%
    13:00 +40°C° 0 mm 2 mps 733 mmHg 30%
    14:00 +40°C° 0 mm 2 mps 732 mmHg 28%
    15:00 +41°C° 0 mm 1 mps 731 mmHg 26%
    16:00 +41°C° 0 mm 1 mps 732 mmHg 27%
    17:00 +41°C° 0 mm 1 mps 732 mmHg 27%
    18:00 +41°C° 0 mm 1 mps 732 mmHg 27%
    19:00 +40°C° 0 mm 2 mps 732 mmHg 29%
    20:00 +40°C° 0 mm 2 mps 733 mmHg 31%
    21:00 +39°C° 0 mm 2 mps 733 mmHg 34%
    22:00 +39°C° 0 mm 2 mps 733 mmHg 38%
    23:00 +38°C° 0 mm 3 mps 733 mmHg 42%

    27 September, Thursday

    Time Temperature Precipitation Wind Pressure Humidity
    00:00 +37°C° 0 mm 3 mps 733 mmHg 46%
    01:00 +36°C° 0 mm 3 mps 733 mmHg 49%
    02:00 +36°C° 0 mm 3 mps 732 mmHg 51%
    03:00 +35°C° 0 mm 2 mps 732 mmHg 54%
    04:00 +35°C° 0 mm 2 mps 733 mmHg 55%
    05:00 +35°C° 0 mm 2 mps 733 mmHg 56%
    06:00 +34°C° 0 mm 2 mps 734 mmHg 57%
    07:00 +35°C° 0 mm 2 mps 734 mmHg 54%
    08:00 +36°C° 0 mm 2 mps 735 mmHg 50%
    09:00 +36°C° 0 mm 2 mps 735 mmHg 47%
    10:00 +37°C° 0 mm 2 mps 735 mmHg 42%
    11:00 +39°C° 0 mm 1 mps 734 mmHg 38%
    12:00 +40°C° 0 mm 1 mps 734 mmHg 33%
    13:00 +40°C° 0 mm 1 mps 733 mmHg 31%
    14:00 +41°C° 0 mm 1 mps 732 mmHg 30%
    15:00 +41°C° 0 mm 1 mps 732 mmHg 28%
    16:00 +41°C° 0 mm 1 mps 732 mmHg 29%
    17:00 +41°C° 0 mm 1 mps 732 mmHg 29%
    18:00 +41°C° 0 mm 2 mps 732 mmHg 30%
    19:00 +40°C° 0 mm 2 mps 733 mmHg 32%
    20:00 +40°C° 0 mm 2 mps 733 mmHg 33%
    21:00 +39°C° 0 mm 2 mps 733 mmHg 35%
    22:00 +39°C° 0 mm 2 mps 733 mmHg 39%
    23:00 +38°C° 0 mm 3 mps 733 mmHg 42%
    Show more